Location: Laas
(43.4693°N, 0.3073°E)
Time: 14:22:57
(UTC+00:00)

Lacrosse 5 - Pass Details

Date: 25 October 2020
Orbit: 716 x 723 km, 57.0° (Epoch: 06 November)

Event Time Altitude Azimuth Distance (km) Brightness Sun altitude
Rises 20:01:27 0° 310° (NW) 3,124 6.0 -33.5°
Reaches altitude 10° 20:04:23 10° 327° (NNW) 2,204 4.9 -34.0°
Enters shadow 20:06:03 16° 343° (NNW) 1,803 4.2 -34.3°
